Location: Zagreb
(45.8000°N, 16.0000°E)
Time: 11:54:55
(UTC+01:00)

Tiangong - Visible Passes

Search period start: 01 December 2021 00:00
Search period end: 11 December 2021 00:00
Orbit: 380 x 384 km, 41.5° (Epoch: 01 December)

Date Brightness Start Highest point End Pass type
(mag) Time Alt. Az. Time Alt. Az. Time Alt. Az.
08 Dec 3.8 18:29:32 10° SSW 18:30:15 13° SSW 18:30:15 13° SSW visible
09 Dec 3.6 17:30:10 10° S 17:31:30 12° SSE 17:32:41 10° SE visible
10 Dec 2.7 18:04:42 10° SW 18:07:14 24° SSE 18:07:14 24° SSE visible
